DMSP 5D-2 F13 DEB, 40414

Orbit data source: Space-Track

DMSP 5D-2 F13 DEB, 40414 is space debris in SSO originally from a launch on Fri, 24 Mar 1995 UTC launched from the Air Force Western Test Range (AFWTR). Debris objects in space refer to the collection of defunct objects orbiting the Earth. Examples of debris include non-operational satellites, rocket bodies, and fragments generated from explosions, collisions, or faulty payload assembly.

Loading next visibility...
Identifier
40414, 1995-015AB
Orbit
SSO
Country
Flag of USUS
Related business
Manufacturer
Unknown
Mission
Spacecraft
Bus & Motor
Unknown
Mass
Unknown
Launch date (UTC)
1995-03-24 (31 years ago)
Launch vehicle
Unknown
Launch site
Air Force Western Test Range (AFWTR)
Object type
Payload
Rocket body
Debris
Shape & HBR
Unknown shape, 0.1 m
Radar Cross Section
Small (<0.1 m²)

Expand to show TLE details & history
Last TLE update: 17 hours ago

TLE from 17 hours ago
0 DMSP 5D-2 F13 DEB
1 40414U 95015AB  26196.01064263  .00001057  00000-0  40517-3 0  9992
2 40414  98.6237 223.9940 0011060 193.2575 166.8320 14.32627789591267
Epoch: 2026-07-15T00:15Z
TLE epoch observation values (Epoch: 2026-07-15T00:15:19.523Z)
Latitude
0.00003°
Longitude
-72.70994°
Altitude
793.609 km
Speed
7.453 km/s
True Right ascension
14h 55m 58s
True Declination
0° 00' 00"
Sunlit
Object was in daylight at epoch
Visualization orbit readout
Latitude
Unknown
Longitude
Unknown
Altitude
Unknown
Speed
Unknown
Apparent Right ascension
Unknown
Apparent Declination
Unknown
Sunlit
N/A
Visualization observer readout
Local Sidereal Time
05:36:54
Azimuth
Unknown
Elevation
Unknown
Doppler factor
Unknown
Orbital elements
Apogee altitude
788.015 km
Perigee altitude
772.181 km
Semi-major axis
7,158.235 km
Eccentricity
0.00111
Inclination
98.6237°
RAAN
223.994°
Arg. of periapsis
193.2575°
True anomaly
166.86083°
Mean anomaly
166.832°
Eccentric anomaly
166.84642°
Mean motion
3.58372 °/min
Orbital period
100.45 mins
BSTAR
0.00040517
Loading maneuver chart data...
Computing Atmospheric mass density...

Documentation

Showing up to 5 results
|